sat.trackr.live / text

‹ back to catalog

STARLINK-33684

NORAD 63649 · 2025-083R

PAYLOAD ACTIVE UNKNOWN

§ Identity

Operator
Country
US
Launch date
2025-04-25
Launch site
AFETR
Launch vehicle
Mass (kg)
RCS (m²)

Purposes: comms

External: N2YO · Heavens-Above · Gunter

§ Orbital elements

Epoch: 2026-05-24T19:38:54.698496Z

Period
94.27 min
Inclination
43.0010°
Eccentricity
0.0001428
Mean motion
15.27588610 rev/d
Perigee alt
482.0 km
Apogee alt
484.0 km
Semi-major
6,861.2 km
B*
7.7805e-4
RAAN
294.9431°
Arg perigee
265.5965°
Mean anomaly
94.4723°
Rev number
6,171

§ Raw data

STARLINK-336841 63649U 25083R   26144.81868864  .00021215  00000+0  77805-3 0  99922 63649  43.0010 294.9431 0001428 265.5965  94.4723 15.27588610 61710

JSON: /api/v1/satellites/63649 · /tle

For live sub-satellite position, see the globe view (requires WebGL).

§ Visibility from observer

Set your observer location to see the next 7 days of passes ≥ 10°. The values pass through the URL so the page stays shareable.

No JS? Fill the form by hand. The geolocation button needs JavaScript.